SB KEPS @ AMSAT $ORB13101.N 2Line Orbital Elements 13101.AMSAT
HR AMSAT ORBITAL ELEMENTS FOR AMATEUR SATELLITES IN NASA FORMAT Send SUBSCRIBE KEPS/UNSUBSCRIBE KEPS to majordomo@amsat.org only BID: ORB13101.N
DECODE 2-LINE ELSETS WITH THE FOLLOWING KEY: 1 AAAAAU 00 0 0 BBBBB.BBBBBBBB .CCCCCCCC 00000-0 00000-0 0 DDDZ 2 AAAAA EEE.EEEE FFF.FFFF GGGGGGG HHH.HHHH III.IIII JJ.JJJJJJJJKKKKKZ KEY: A-CATALOGNUM B-EPOCHTIME C-DECAY D-ELSETNUM E-INCLINATION F-RAAN G-ECCENTRICITY H-ARGPERIGEE I-MNANOM J-MNMOTION K-ORBITNUM Z-CHECKSUM
TO ALL RADIO AMATEURS BT
AO-07 1 07530U 74089B 13101.86291394 -.00000029 00000-0 87167-4 0 6533 2 07530 101.4276 093.7864 0012311 059.4694 328.6815 12.53595417757475 FO-29 1 24278U 96046B 13100.78900369 -.00000019 00000-0 18542-4 0 889 2 24278 098.5613 168.3455 0349977 338.9347 169.8209 13.52998409822192 SO-33 1 25509U 98061B 13101.12248039 .00001173 00000-0 21917-3 0 4710 2 25509 031.4338 087.3156 0351443 290.8043 148.1125 14.28999163755293 RS-22 1 27939U 03042A 13101.56332779 .00000776 00000-0 15500-3 0 3164 2 27939 097.7991 292.8924 0014267 041.7630 318.4650 14.64383597509541 VO-52 1 28650U 05017B 13101.64737417 .00002238 00000-0 27509-3 0 3938 2 28650 097.5721 123.6612 0027458 138.1082 010.2777 14.83701048429212 HO-68 1 36122U 09072B 13101.69580701 -.00000044 00000-0 00000 0 0 4526 2 36122 100.3133 160.4110 0007462 143.7397 216.4216 13.16303171159668 UO-11 1 14781U 84021B 13100.74113859 .00001155 00000-0 15641-3 0 1487 2 14781 097.9089 162.9984 0010082 142.8750 217.3161 14.80813149563950 AO-16 1 20439U 90005D 13101.37935551 .00000231 00000-0 10160-3 0 7193 2 20439 098.4665 042.9739 0010687 003.0887 143.0787 14.32155960212674 LO-19 1 20442U 90005G 13100.91874110 .00000226 00000-0 99378-4 0 6528 2 20442 098.4355 044.5261 0011466 354.5642 049.2806 14.32368192212808 AO-27 1 22825U 93061C 13100.86766420 .00000184 00000-0 89040-4 0 3567 2 22825 098.6130 045.6236 0009550 123.2044 270.4188 14.29547461 19013 IO-26 1 22826U 93061D 13101.79024152 .00000223 00000-0 10387-3 0 1132 2 22826 098.6073 046.8366 0010093 115.1889 277.5304 14.29830459 19276 GO-32 1 25397U 98043D 13100.83924891 .00000125 00000-0 73426-4 0 433 2 25397 098.4083 071.5520 0002426 118.8099 272.2329 14.23331179766369 NO-44 1 26931U 01043C 13101.17683368 .00000244 00000-0 12661-3 0 3024 2 26931 067.0523 072.2481 0006691 286.7671 161.8423 14.29905228601845 SO-50 1 27607U 02058C 13101.17285521 .00000843 00000-0 14971-3 0 388 2 27607 064.5559 108.1366 0053541 184.0201 252.1389 14.72846463553847 CO-55 1 27844U 03031E 13101.03943939 .00000321 00000-0 16769-3 0 6229 2 27844 098.7022 111.0876 0010882 085.9234 340.4085 14.21186676507197 CO-57 1 27848U 03031J 13101.60621669 .00000279 00000-0 14909-3 0 5673 2 27848 098.7111 111.1237 0010825 089.6757 057.9715 14.20916535507206 AO-51 1 28375U 04025K 13100.82664380 .00000286 00000-0 98402-4 0 5290 2 28375 098.1949 059.0159 0082906 219.1125 173.2952 14.41092111461635 CP3 1 31129U 07012N 13100.47157439 .00001247 00000-0 29067-3 0 4346 2 31129 097.8956 096.9497 0098810 278.1006 234.4541 14.53558507317159 CO-65 1 32785U 08021C 13101.20471579 .00002106 00000-0 26053-3 0 6026 2 32785 097.7578 160.6342 0015263 162.5890 230.3238 14.83708270267949 PRISM 1 33493U 09002B 13101.74667932 .00004364 00000-0 50930-3 0 7022 2 33493 098.2087 256.5356 0019086 051.2241 309.0686 14.85600199228051 SOHLA-1 1 33496U 09002E 13100.84099213 .00000818 00000-0 14397-3 0 161 2 33496 098.1265 217.0692 0007179 165.8716 340.2780 14.70232646225977 SO-67 1 35870U 09049F 13101.78319756 .00006659 00000-0 25832-3 0 9592 2 35870 097.1981 132.9143 0002114 147.3728 319.8171 15.26428432198121 TISAT-1 1 36799U 10035E 13101.80223782 .00002491 00000-0 31253-3 0 9747 2 36799 098.0351 186.1068 0013268 284.9935 074.9825 14.83045767148735 STUDSAT 1 36801U 10035G 13101.13816427 .00010271 00000-0 11371-2 0 6123 2 36801 098.0454 187.9964 0010853 264.0944 155.6225 14.87490812148755 FO-69 1 37227U 0 13058.47095845 .00000509 00000-0 79251-4 0 00791 2 37227 071.9702 108.5053 0016475 214.8087 145.2122 14.77380366012706 FO-70 1 37380U 0 13057.30123492 -.00000046 00000-0 14930-5 0 00760 2 37380 071.9749 111.9690 0018455 208.9506 151.0634 14.77121324012601 ALMASAT-1 1 38078U 12006B 13101.69650800 .00018976 00000-0 47498-3 0 1689 2 38078 069.4862 354.9016 0713604 231.9215 121.5488 14.21014119 59787 XATCOBEO 1 38082U 12006F 13101.64982442 .00053615 35152-5 10919-2 0 719 2 38082 069.4819 336.9201 0620288 222.0461 133.1498 14.45219226 60277 NOAA-10 1 16969U 86073A 13101.55481199 .00000115 00000-0 64123-4 0 3107 2 16969 098.5510 130.8273 0013408 083.5944 071.3345 14.27626733382438 NOAA-11 1 19531U 88089A 13101.27803596 .00000082 00000-0 64430-4 0 3139 2 19531 098.7113 185.8845 0012316 094.6296 333.9199 14.15008847266669 NOAA-12 1 21263U 91032A 13101.44632207 .00000049 00000-0 39364-4 0 7847 2 21263 098.7022 127.3451 0014555 057.9916 070.0969 14.25555432139048 MET-3/5 1 21655U 91056A 13101.47444859 -.00000326 00000-0 -87976-3 0 6632 2 21655 082.5537 301.4367 0012224 298.0965 061.8922 13.17049515 41150 MET-2/21 1 22782U 93055A 13101.16064122 -.00000003 00000-0 -16628-4 0 7104 2 22782 082.5490 156.1037 0022834 040.8502 011.0010 13.83702139990370 OKEAN-4 1 23317U 94066A 13100.84027778 .00001985 00000-0 23274-3 0 1883 2 23317 082.5364 112.8233 0022906 090.2120 257.8927 14.84335492998952 NOAA-14 1 23455U 94089A 13101.34118615 .00000030 00000-0 38839-4 0 2692 2 23455 098.8030 186.7893 0009750 182.0620 244.0207 14.13900888942928 NOAA-15 1 25338U 98030A 13101.60316789 .00000274 00000-0 13549-3 0 6891 2 25338 098.7217 092.1840 0009737 326.2121 142.5202 14.25198109775357 RESURS 1 25394U 98043A 13101.50002403 .00000059 00000-0 43106-4 0 3487 2 25394 098.3564 080.5567 0002611 093.9619 052.8057 14.24325839766869 FENGYUN1 1 25730U 99025A 13101.84570076 .00002092 00000-0 11996-2 0 8489 2 25730 098.8749 062.1935 0022770 232.0885 161.1005 14.10361704716696 OKEAN-0 1 25860U 99039A 13101.13770198 .00000864 00000-0 13741-3 0 9158 2 25860 097.9838 064.5157 0001604 078.7069 341.6747 14.74534450738471 NOAA-16 1 26536U 00055A 13101.35828492 .00000271 00000-0 17012-3 0 1669 2 26536 099.0493 153.4398 0009694 327.4503 161.4435 14.12857588647137 NOAA-17 1 27453U 02032A 13101.57393572 .00000222 00000-0 11322-3 0 893 2 27453 098.3154 119.1794 0011370 007.5011 152.3047 14.24552617561237 NOAA-18 1 28654U 05018A 13101.54395022 .00000409 00000-0 24907-3 0 5720 2 28654 099.0939 068.8264 0014882 040.0171 093.8939 14.11794171406654 NOAA-19 1 33591U 09005A 13101.53352700 .00000391 00000-0 24023-3 0 7586 2 33591 098.8993 044.1408 0013014 257.0089 163.1990 14.11481352215096 HUBBLE 1 20580U 90037B 13100.82303510 .00003733 00000-0 25534-3 0 2149 2 20580 028.4709 354.3875 0003182 356.5929 081.5880 15.03449688 59546 ISS 1 25544U 98067A 13101.83411699 .00015094 00000-0 25118-3 0 5947 2 25544 051.6458 077.6476 0010842 131.1102 305.5272 15.52197529824400 CO-58 1 28895U 05043F 13100.63168506 .00001060 00000-0 22458-3 0 4484 2 28895 097.8783 319.2283 0016315 296.2676 096.9199 14.61027265397082 FALCON 1 30776U 07006E 13100.86594164 .00008670 00000-0 52385-3 0 5885 2 30776 035.4307 255.2215 0000824 080.2918 075.8081 15.10038775335233 MAST 1 31126U 07012K 13101.57281833 .00000662 00000-0 15729-3 0 7265 2 31126 097.8799 101.3076 0091947 260.0374 248.4807 14.54500871317632 CAPE1 1 31130U 07012P 13101.40606053 .00000911 00000-0 21583-3 0 7360 2 31130 097.8963 097.4795 0099283 276.0749 082.9142 14.53395316317073 COMPASS 1 32787U 08021E 13101.18298337 .00003219 00000-0 38096-3 0 5928 2 32787 097.7581 161.4743 0015690 159.3527 234.4021 14.85196188268020 AAUSAT2 1 32788U 08021F 13101.14814168 .00003780 00000-0 44171-3 0 5790 2 32788 097.7592 162.0170 0015260 159.4897 253.5308 14.85627299268053 DO-64 1 32789U 08021G 13101.21094788 .00006366 00000-0 69790-3 0 6076 2 32789 097.7737 165.4693 0014951 153.4894 239.7474 14.87995165268163 CO-66 1 32791U 08021J 13101.73733247 .00002335 00000-0 28345-3 0 5775 2 32791 097.7587 161.4609 0016151 158.8705 348.6116 14.84397943268010 RS-30 1 32953U 08025A 13101.49744182 .00000010 00000-0 00000 0 0 7574 2 32953 082.4981 109.6652 0019447 022.5511 337.6419 12.43032776221627 METEOR-M 1 35865U 09049A 13101.65680989 -.00000008 00000-0 15888-4 0 3566 2 35865 098.6095 155.6917 0001639 279.8050 080.2946 14.21882750185012 RS-38 1 35869U 09049E 13101.70137082 .00000026 00000-0 31193-4 0 3316 2 35869 098.6037 155.6682 0003824 272.9851 087.0890 14.22120028185042 JUGNU 1 37839U 11058B 13100.81831212 .00000528 00000-0 14074-3 0 3646 2 37839 019.9630 354.9796 0018983 261.1815 163.1916 14.12139882 77365 SRMSAT 1 37841U 11058D 13101.84577626 .00000459 00000-0 10826-3 0 3676 2 37841 019.9733 359.4975 0011827 228.1945 198.8143 14.10213244 77391 RAX-2 1 37853U 11061D 13101.52058637 .00011391 00000-0 86228-3 0 4727 2 37853 101.7170 284.2941 0237788 218.4603 175.2696 14.82811322 78568 AUBIESAT 1 37854U 11061E 13100.49687009 .00011268 00000-0 83701-3 0 4685 2 37854 101.7202 283.5277 0238082 220.2059 173.8198 14.83421118 78420 HRBE 1 37855U 11061F 13101.49834066 .00011803 00000-0 87995-3 0 4666 2 37855 101.7205 284.8029 0238917 217.7083 176.4407 14.83152761 78560 RS-39 1 38051U 11062C 13101.72126822 .00018029 00000-0 60940-3 0 3382 2 38051 051.6373 170.9090 0012882 025.7590 120.5674 15.30626511 67591 E-STAR 1 38079U 12006C 13101.64217972 .00049735 34107-5 10454-2 0 366 2 38079 069.4788 341.4101 0650109 224.6717 233.5360 14.38271697 60146 GOLIAT 1 38085U 12006J 13101.67770434 .00040379 32784-5 85745-3 0 9632 2 38085 069.4926 343.0183 0657562 225.4114 129.1654 14.36568049 60105 HORYU-2 1 38340U 12025D 13101.91236674 .00002038 00000-0 34196-3 0 4558 2 38340 098.2098 049.0206 0014017 102.7972 257.4799 14.70755914 48376 RS-40 1 38736U 12041D 13101.90307978 .00000010 00000-0 00000 0 0 2379 2 38736 082.4746 196.4408 0023476 110.4843 249.1361 12.42874267 32010 PROITERES 1 38756U 12047B 13101.80136122 .00000715 00000-0 11651-3 0 6775 2 38756 098.2565 177.6170 0011927 323.1483 036.8910 14.74138275 31619 RAIKO 1 38852U 98067CN 13101.36891619 .00110359 00000-0 10066-2 0 1902 2 38852 051.6402 070.9246 0015442 110.2952 249.9705 15.66888836 29354 FITSAT 1 1 38853U 98067CP 13101.12003251 .00147214 00000-0 11240-2 0 1921 2 38853 051.6423 070.0332 0012771 118.5371 241.6914 15.71112487 29396 TechEdSat 1 38854U 98067CQ 13101.75629694 .00459981 00000-0 16446-2 0 2275 2 38854 051.6341 060.6855 0011884 130.8690 229.3346 15.87007629 29576 F 1 1 38855U 98067CR 13101.12755561 .00393176 00000-0 16340-2 0 2197 2 38855 051.6329 064.7337 0011905 124.4182 235.7949 15.84051636 29352 WeWish 1 38856U 98067CS 13069.98095549 .16701328 12537-4 10063-2 0 2487 2 38856 051.6166 215.0521 0008325 316.0438 044.8765 16.41348316 24586 /EX
participants (1)
-
Ray Hoad